Dewpoint
-3 -0 1 2 3 3 3 3 3 3 2 2 2 1 0 -1 -4 -7 -5 -4 -4 -4 -4 -8 -8 -10 -8 -5 -6 -9 -8 -7 -8 -9 -9 -8 -8 -9 -10 -9 -8 10 7 9 11
-4 -2 -0 1 2 2 3 3 3 2 2 2 2 1 0 -1 -5 -8 -2 -2 -3 -5 -7 -8 -7 -6 -5 -4 -5 -8 -8 -9 -10 -9 -7 -4 -7 -7 -9 -9 -0 -4 -5 -5 -1
-3 -3 -2 -0 1 2 2 2 3 3 2 2 2 1 0 -2 -6 -1 -1 -2 -3 -6 -8 -8 -9 -7 -3 -3 -2 -4 -5 -8 -6 -2 -1 -4 -3 -4 -8 -6 -8 -8 -4 -4 3
-1 -3 -3 -1 0 1 2 2 3 3 3 2 2 1 -0 -2 -8 -2 -1 -0 -2 -8 -6 -6 -7 -4 -1 -1 1 -0 -2 -2 -1 -1 -1 -2 -2 -5 -4 -6 -6 -6 -6 -5 4
1 1 -2 -2 -0 1 2 2 3 3 3 2 1 1 -1 -2 -5 -8 -7 -7 -8 -3 -2 -2 0 3 3 4 2 -1 -0 1 0 -1 -2 -3 -2 -3 -4 -7 -4 -4 -6 -7 3
-4 1 1 -1 -0 1 2 2 3 3 3 2 1 0 0 3 -6 -8 -7 -7 -5 -2 1 2 4 4 4 4 3 2 2 1 -1 -3 -3 -2 -3 -5 -5 -2 -2 -3 -6 -2 3
-3 -4 2 2 1 1 2 3 4 3 2 1 1 1 1 -3 -5 -6 -7 -7 -5 -2 0 4 5 4 4 4 4 3 2 0 -3 -3 -3 -3 -3 -4 -3 -2 -2 -2 -4 -7 -4
4 -1 -4 3 4 3 4 4 3 3 2 1 1 1 0 -7 -8 -8 -8 -8 -8 -7 -1 3 5 5 5 4 3 2 1 -1 -7 -2 -2 -2 1 -2 -1 -1 -2 -2 -2 -3 -6
9 4 -1 -3 4 5 4 4 3 3 2 4 2 3 -1 -5 -5 3 2 3 4 3 -3 4 6 5 5 5 4 4 -3 1 1 -1 -1 0 2 -1 -1 -1 -2 -2 -2 -2 -3
10 8 4 -1 -2 3 5 5 4 3 4 5 5 3 -4 -6 0 4 4 3 4 3 3 4 5 5 5 5 1 1 5 3 3 1 1 2 2 -0 -0 -1 -1 -1 -1 -1 -2
10 10 8 5 -1 2 5 5 5 5 6 -1 -0 -2 0 1 3 5 5 4 5 5 6 5 6 7 6 5 2 4 4 5 4 2 2 3 2 1 -0 -1 0 1 1 1 0
9 9 10 7 5 2 4 5 3 1 5 2 1 3 -1 3 4 5 5 4 4 5 4 5 7 5 4 5 5 5 6 6 3 2 2 2 3 1 -1 1 1 1 2 3 1
9 9 9 8 8 4 4 4 2 4 1 3 -0 4 -0 1 4 4 4 3 3 5 4 5 4 3 5 5 6 5 6 5 4 2 1 2 3 2 1 1 -1 2 5 6 5
8 8 9 9 8 6 5 3 3 5 4 4 6 5 2 4 5 -2 4 3 2 5 4 5 3 4 6 6 5 6 3 3 3 4 5 1 5 3 1 1 0 3 6 6 7
8 8 9 9 7 6 4 4 6 1 8 4 6 5 5 3 4 4 -1 4 4 3 3 5 3 4 3 3 2 4 2 3 3 4 3 3 4 3 2 2 1 1 5 6 7
6 8 8 8 8 7 5 4 5 5 7 6 6 7 6 5 6 6 4 3 3 2 3 3 2 2 2 1 2 1 0 0 1 2 5 3 4 4 2 2 2 1 4 5 6
5 7 8 8 7 7 6 5 7 7 5 5 7 7 7 8 7 5 6 6 6 7 7 5 5 4 2 4 1 -1 1 5 6 6 6 2 4 3 2 1 0 1 2 3 4
6 6 8 8 8 8 6 7 6 6 6 3 5 6 8 7 7 4 7 7 5 4 6 7 8 5 3 4 5 1 2 6 8 6 4 3 6 3 1 -1 -0 0 1 2 -1
6 6 7 7 8 7 7 6 7 5 4 4 5 7 7 7 6 3 7 7 6 3 6 7 7 2 2 2 2 2 3 1 4 4 4 4 4 2 1 -2 -3 -2 -1 -0 -0
5 6 6 7 7 7 7 7 6 5 3 3 6 6 8 8 7 4 6 4 5 3 1 3 5 -0 -0 1 2 1 1 4 4 7 8 5 5 4 4 -0 -2 -4 -3 -2 -2
5 6 6 7 7 7 7 7 6 5 3 3 4 5 6 7 7 7 5 3 4 4 2 1 1 1 -1 2 4 3 3 4 4 4 6 6 6 2 3 0 -2 -5 -6 -4 -2
5 5 6 6 7 4 6 5 5 5 4 5 6 3 4 5 7 7 6 4 2 3 5 2 2 3 1 -2 -2 1 3 4 5 6 4 4 4 -2 0 -3 -3 -4 -6 -9 -8
5 4 6 7 6 6 6 6 5 5 5 6 6 5 4 4 6 6 5 2 1 3 4 3 6 5 4 1 -2 0 1 3 3 4 6 6 5 -3 -3 -2 -3 -5 -4 -4 -5
4 3 1 3 5 5 6 6 6 5 5 5 5 3 3 5 2 5 4 1 -1 1 1 2 3 5 6 2 1 -0 -1 3 4 5 6 6 4 0 -1 -2 -3 -7 -9 -10 -11
4 2 2 4 2 5 4 5 6 7 5 5 6 5 5 7 5 3 2 -1 -2 0 -1 1 3 1 0 -1 -2 -2 -1 1 2 3 5 4 4 -1 2 -0 -5 -8 -9 -7 -8
1 1 2 1 2 5 5 5 6 5 5 7 6 5 4 6 5 5 3 1 -0 -2 -1 -1 1 1 1 -1 -2 -1 -3 -2 -1 1 0 1 1 -4 -3 -5 -8 -9 -8 -8 -8
3 2 2 2 3 4 5 5 5 4 3 3 4 5 3 2 1 1 1 0 -0 -0 0 1 1 1 3 -1 -1 1 -1 -3 -3 -3 -2 -1 -3 -7 -6 -6 -7 -7 -4 -4 -5
Wind_Speed
28 26 25 23 20 18 16 15 13 13 13 13 14 14 15 16 14 13 9 3 4 7 9 8 5 6 2 2 2 2 4 2 3 5 4 12 8 4 8 4 7 3 6 10 14
30 28 26 24 22 19 17 16 14 14 14 14 15 15 16 18 18 14 1 2 4 8 7 8 9 8 3 2 2 4 3 6 2 3 2 7 6 11 7 12 3 4 8 11 12
30 29 27 25 23 20 18 16 15 14 14 15 15 14 15 16 16 4 3 1 4 8 11 8 8 8 4 4 5 2 4 2 0 7 15 5 7 10 6 7 6 14 12 13 11
31 30 28 26 24 21 19 17 15 15 14 15 15 15 14 12 4 4 7 8 11 14 12 8 4 2 3 3 4 2 1 1 5 8 12 8 14 5 14 20 20 24 25 16 15
32 31 29 27 25 22 20 18 17 16 15 15 16 15 13 8 11 15 15 16 15 8 5 4 4 2 2 1 4 1 4 10 12 18 16 18 15 10 17 20 17 19 17 16 18
33 32 30 28 26 24 22 20 18 16 16 14 16 15 11 8 5 8 9 6 4 2 2 3 4 3 2 1 1 4 8 16 12 21 13 5 6 2 8 16 20 22 17 18 21
34 33 31 29 28 25 23 20 17 16 15 14 15 15 15 22 12 11 13 13 9 9 4 3 2 2 4 4 5 5 5 8 6 3 4 3 2 4 10 21 23 23 21 10 16
34 34 32 30 27 24 22 20 18 16 15 13 13 14 13 18 18 19 18 20 18 15 14 6 3 2 1 5 6 3 3 3 5 5 4 2 5 8 19 21 20 21 19 14 8
38 34 33 31 28 24 23 20 18 16 13 10 9 9 14 12 9 1 4 5 7 10 17 8 2 3 5 3 4 4 3 2 6 3 2 6 5 11 18 22 17 17 17 14 11
37 38 33 32 30 27 24 20 18 14 10 8 12 8 16 5 4 2 6 3 3 8 8 8 4 2 1 4 5 4 3 3 3 5 7 8 7 6 17 16 13 16 19 19 16
37 33 37 33 32 32 30 24 9 6 17 13 9 6 3 8 7 8 9 9 11 6 5 6 3 9 10 7 3 4 1 3 5 8 1 8 6 11 20 8 13 16 19 21 21
34 31 34 35 34 34 32 31 21 3 6 27 29 21 15 7 5 12 12 8 6 4 6 2 8 7 7 7 5 3 2 6 8 6 5 7 9 12 3 3 5 11 17 19 21
31 34 27 39 33 33 37 36 17 8 4 7 25 32 30 26 12 15 17 10 5 6 8 6 3 5 11 5 5 5 5 5 7 7 4 3 6 6 2 3 7 13 13 14 16
33 35 33 38 39 39 39 33 14 8 2 5 8 12 24 15 8 36 22 13 4 10 7 7 8 6 5 6 7 3 9 9 5 1 3 1 5 5 0 2 5 11 16 16 16
30 36 34 34 29 46 46 34 19 14 4 6 6 6 11 16 9 13 39 22 9 8 7 8 5 7 9 7 8 8 5 7 5 5 1 2 2 6 2 1 4 8 13 17 18
40 32 34 33 37 44 36 37 18 4 9 6 9 8 10 12 3 4 14 13 16 4 2 7 2 5 8 6 12 2 3 4 4 3 2 6 7 4 2 3 1 4 10 13 16
37 35 34 35 40 42 36 36 6 5 2 7 6 9 5 6 4 5 10 12 9 10 13 4 5 2 4 3 3 5 6 1 2 0 5 1 3 6 2 4 4 1 7 10 13
35 39 36 37 36 42 45 13 5 7 8 3 8 10 9 6 5 7 11 12 10 3 4 10 4 11 6 8 6 6 7 5 7 4 3 2 5 4 2 4 5 4 3 6 11
32 38 38 42 37 42 31 7 10 6 6 6 12 5 4 4 6 5 8 9 12 8 6 5 6 1 5 5 11 5 5 5 6 3 3 4 3 1 3 4 3 3 2 4 6
37 36 39 44 39 48 17 11 11 10 6 5 6 7 9 8 7 8 10 8 7 12 4 5 1 3 3 5 6 7 8 4 2 4 5 4 3 5 7 7 3 1 7 6 5
39 20 24 43 46 38 14 11 10 18 8 10 8 6 7 8 8 8 7 2 13 14 12 5 4 3 4 5 9 4 5 2 5 5 5 3 5 5 10 7 7 3 4 6 7
38 12 27 42 14 6 11 14 11 12 19 5 1 3 7 9 10 10 9 7 16 17 17 7 4 5 7 1 2 0 6 6 4 5 2 3 5 1 8 11 12 7 7 7 8
23 15 35 47 14 10 4 7 9 11 16 10 8 5 3 6 5 9 7 3 10 14 13 10 4 2 5 2 1 5 5 5 6 3 7 5 5 2 10 9 7 8 5 4 13
17 7 7 17 10 18 14 12 9 16 15 7 7 4 4 3 1 6 8 1 4 10 14 19 4 8 12 4 5 6 6 5 7 4 6 6 6 7 7 6 8 2 11 15 20
14 4 6 16 7 20 22 12 17 8 7 17 5 14 17 9 3 5 4 3 4 9 5 6 8 5 1 2 1 5 8 9 7 9 9 9 10 14 11 9 15 14 15 17 22
11 7 5 3 27 15 20 20 19 10 11 14 12 16 12 9 14 12 7 5 6 2 5 2 3 3 1 1 3 4 6 10 5 5 4 6 6 7 16 11 11 12 16 19 20
20 18 13 3 15 18 15 18 21 18 7 15 15 14 14 19 9 4 7 8 7 8 4 1 7 4 7 3 3 4 14 10 5 5 8 8 8 7 5 8 14 15 14 15 17
Wind_Direction
229 230 231 232 235 238 244 252 260 273 285 294 302 310 317 319 325 328 336 336 319 319 322 339 315 313 324 95 52 118 64 163 219 162 281 356 3 354 337 318 334 338 337 317 311
228 229 230 232 234 238 243 250 258 268 278 288 299 310 318 323 325 319 145 43 6 1 358 6 19 21 88 51 40 82 108 221 266 344 13 319 347 330 340 312 220 339 298 310 293
228 229 229 231 234 237 241 248 258 266 276 285 294 305 315 325 327 143 175 263 342 352 349 348 359 6 50 19 21 54 175 184 148 348 342 323 322 322 310 299 298 295 286 293 253
229 228 229 229 232 235 239 244 251 261 270 280 289 298 307 316 309 229 248 283 307 318 322 315 322 38 40 26 358 1 232 144 299 319 324 304 307 270 268 274 290 293 293 277 243
229 229 228 228 228 231 234 239 245 254 264 276 285 293 306 289 261 266 264 273 289 303 333 2 33 37 99 76 336 261 327 309 302 304 291 284 258 267 282 311 324 314 283 262 239
228 229 228 228 227 228 231 236 243 251 262 275 283 293 302 283 266 263 273 260 246 329 33 67 65 28 51 46 79 314 294 297 301 293 281 230 269 219 317 342 334 340 312 262 244
227 228 227 227 228 228 232 234 240 251 260 271 284 295 291 266 272 249 255 252 264 270 234 155 103 29 358 338 337 306 319 328 275 302 292 318 317 234 324 336 330 336 349 301 260
226 226 225 225 226 228 231 234 236 245 256 266 278 300 276 281 266 265 255 257 264 249 240 222 252 282 180 321 342 347 73 15 298 336 335 55 283 293 332 338 331 332 347 345 305
223 223 222 222 220 222 225 226 232 238 247 260 280 288 270 268 271 182 193 230 249 237 218 212 228 176 136 92 359 346 255 202 311 355 354 59 297 293 318 327 325 333 336 347 336
226 221 220 218 216 215 217 218 225 230 230 253 256 283 247 240 173 202 182 158 151 144 151 188 170 101 78 117 232 216 238 246 239 295 18 320 281 288 301 305 311 330 337 335 331
220 225 219 214 212 210 205 198 185 221 213 203 211 208 226 206 204 190 169 142 121 133 152 175 151 210 197 185 153 91 301 297 260 259 344 269 274 281 285 293 344 344 342 337 333
232 226 223 211 210 210 209 196 195 186 220 236 233 244 229 217 220 181 175 170 166 170 128 84 237 224 173 180 185 194 274 281 280 277 165 280 287 268 347 64 11 357 355 350 341
231 230 230 206 206 206 209 207 202 192 311 243 229 231 239 230 228 198 187 184 175 157 189 178 233 184 176 153 169 212 190 231 226 349 301 312 292 310 45 57 23 26 15 19 9
226 226 224 217 200 201 210 203 200 175 292 246 213 237 212 198 252 225 201 187 194 184 180 232 227 127 151 194 172 209 204 224 237 109 235 25 282 301 187 44 8 23 37 35 32
223 217 211 207 194 196 205 185 144 142 230 182 165 166 177 173 138 218 216 202 176 178 138 228 206 190 203 199 157 225 167 196 210 193 105 298 330 268 25 6 352 350 44 49 51
221 214 211 209 217 206 195 176 166 155 223 198 143 152 151 204 196 89 168 201 216 185 255 208 190 154 197 197 175 181 127 58 55 116 267 220 179 276 209 218 233 346 48 55 62
219 217 208 212 199 200 182 157 184 207 12 192 164 156 181 162 216 142 166 182 173 183 217 181 216 217 177 138 163 140 117 316 351 213 223 40 138 244 200 159 158 147 63 64 72
213 214 207 208 199 196 172 165 187 184 207 189 149 149 180 142 217 167 152 192 234 159 126 198 253 177 178 182 178 181 162 158 199 196 230 271 233 266 169 109 137 145 92 86 88
207 208 216 203 206 194 175 179 192 174 181 188 127 120 201 175 149 148 183 204 203 179 159 154 254 190 201 159 158 183 189 174 104 38 75 230 268 37 122 94 178 168 176 141 125
205 206 214 200 203 187 196 204 190 161 173 207 156 154 176 177 159 177 173 197 196 181 135 196 274 213 182 115 193 172 169 99 3 167 220 246 251 222 182 193 204 271 217 197 174
201 195 218 199 193 191 216 207 188 204 170 186 200 150 171 161 178 201 194 334 185 183 184 134 131 273 126 205 173 151 186 109 130 152 175 176 249 214 183 158 166 162 37 265 249
189 202 192 190 191 194 205 187 172 171 212 187 42 135 157 156 183 202 207 210 188 159 193 165 158 205 206 279 216 63 196 149 151 215 278 134 260 320 140 134 147 131 81 62 54
192 181 189 187 213 173 143 169 209 159 188 182 189 194 127 167 197 192 182 193 168 169 169 168 201 119 325 334 214 192 184 166 105 88 189 152 252 150 136 148 125 93 80 294 301
168 191 202 198 227 189 180 198 177 201 186 156 169 113 117 172 291 220 204 164 166 184 184 163 157 199 218 203 145 170 185 175 168 157 175 215 156 199 195 180 166 242 291 281 270
164 202 153 194 213 194 200 155 187 172 196 158 176 201 183 183 195 227 132 136 41 146 108 155 193 157 167 262 161 179 173 166 173 195 183 207 205 186 208 210 200 259 271 269 270
139 139 143 130 195 200 189 198 187 169 164 185 207 192 188 202 197 209 162 180 179 189 147 129 188 129 179 295 222 193 159 174 182 140 97 157 241 192 210 222 268 265 269 269 270
171 160 149 186 180 199 199 189 197 189 210 194 200 175 187 201 144 124 180 143 149 146 140 356 140 135 219 158 134 297 205 181 168 174 147 185 209 161 184 216 239 245 246 264 276
Height
1507 1509 1512 1515 1517 1519 1521 1523 1523 1523 1523 1523 1523 1522 1522 1521 1520 1519 1518 1518 1517 1516 1515 1514 1514 1513 1513 1514 1514 1515 1527 1533 1522 1525 1519 1516 1515 1513 1512 1510 1510 1509 1508 1507 1506
1502 1505 1508 1511 1514 1517 1518 1520 1521 1521 1521 1521 1521 1521 1521 1520 1518 1517 1519 1517 1516 1516 1515 1514 1513 1512 1512 1514 1515 1515 1529 1526 1519 1518 1519 1517 1516 1513 1512 1509 1509 1509 1507 1507 1505
1497 1501 1504 1508 1511 1513 1515 1517 1519 1519 1519 1519 1519 1520 1520 1519 1517 1516 1516 1516 1515 1516 1516 1515 1515 1515 1514 1515 1516 1517 1522 1518 1518 1519 1518 1516 1514 1513 1510 1504 1505 1504 1503 1502 1502
1493 1496 1500 1503 1507 1510 1512 1514 1516 1517 1517 1517 1517 1518 1518 1519 1522 1515 1515 1514 1515 1514 1514 1514 1514 1515 1517 1519 1519 1520 1516 1516 1516 1516 1517 1515 1512 1510 1508 1503 1502 1502 1500 1499 1501
1487 1492 1495 1499 1503 1506 1509 1511 1513 1514 1515 1514 1514 1515 1517 1517 1514 1514 1512 1513 1513 1513 1513 1514 1514 1515 1516 1517 1518 1519 1518 1516 1515 1513 1512 1510 1508 1509 1505 1501 1500 1497 1496 1497 1497
1481 1487 1491 1495 1499 1503 1505 1508 1510 1511 1512 1512 1512 1514 1516 1516 1510 1510 1511 1511 1511 1512 1513 1514 1515 1517 1517 1517 1519 1518 1516 1515 1511 1508 1507 1507 1505 1505 1501 1500 1497 1494 1491 1492 1493
1474 1481 1486 1490 1495 1499 1503 1505 1507 1509 1510 1510 1510 1512 1512 1508 1507 1507 1509 1508 1509 1511 1512 1513 1514 1516 1518 1518 1517 1516 1518 1512 1508 1506 1504 1504 1505 1504 1500 1498 1494 1492 1490 1488 1489
1468 1474 1479 1486 1491 1495 1500 1503 1504 1506 1507 1508 1509 1510 1505 1502 1502 1503 1505 1504 1506 1507 1511 1512 1514 1516 1516 1519 1518 1518 1519 1522 1508 1507 1505 1505 1514 1500 1497 1496 1493 1490 1489 1488 1488
1461 1467 1473 1480 1486 1492 1497 1499 1501 1502 1505 1507 1509 1509 1501 1496 1497 1499 1500 1501 1502 1503 1507 1512 1514 1516 1516 1520 1526 1524 1526 1522 1516 1508 1507 1509 1512 1501 1497 1494 1490 1488 1486 1487 1485
1453 1461 1467 1474 1480 1487 1492 1496 1498 1501 1503 1507 1505 1511 1498 1495 1496 1496 1498 1500 1501 1502 1507 1512 1513 1517 1518 1521 1531 1524 1525 1523 1522 1510 1507 1511 1509 1501 1497 1495 1492 1488 1486 1485 1483
1446 1452 1460 1467 1474 1479 1484 1492 1500 1502 1500 1493 1492 1492 1491 1492 1494 1494 1496 1499 1500 1503 1508 1510 1516 1517 1509 1513 1516 1517 1522 1525 1520 1510 1512 1509 1507 1501 1493 1494 1492 1490 1487 1484 1481
1438 1443 1451 1460 1468 1472 1478 1480 1484 1489 1489 1487 1489 1489 1490 1488 1490 1492 1493 1498 1499 1504 1507 1513 1511 1504 1508 1512 1515 1517 1523 1525 1516 1507 1512 1508 1505 1496 1493 1494 1493 1491 1488 1485 1482
1433 1438 1444 1452 1462 1467 1469 1478 1483 1486 1488 1481 1479 1478 1483 1486 1486 1488 1490 1492 1495 1502 1505 1510 1502 1495 1506 1512 1516 1518 1522 1521 1519 1511 1508 1507 1507 1498 1495 1493 1492 1491 1489 1486 1482
1426 1430 1439 1442 1457 1456 1464 1478 1482 1486 1493 1476 1472 1465 1472 1480 1479 1484 1484 1488 1494 1498 1502 1504 1498 1500 1505 1509 1511 1519 1509 1510 1514 1519 1527 1508 1525 1503 1496 1496 1494 1491 1489 1485 1481
1421 1427 1431 1436 1442 1447 1456 1474 1479 1484 1487 1457 1462 1462 1463 1471 1470 1471 1477 1483 1488 1492 1496 1496 1494 1498 1501 1501 1506 1510 1504 1509 1512 1519 1519 1516 1524 1506 1500 1500 1499 1495 1492 1489 1484
1414 1421 1427 1427 1438 1446 1454 1465 1478 1489 1472 1457 1454 1458 1464 1466 1465 1468 1474 1481 1485 1489 1489 1490 1489 1490 1492 1493 1497 1498 1504 1511 1515 1520 1530 1516 1517 1513 1505 1500 1500 1499 1497 1494 1490
1407 1413 1419 1424 1428 1438 1449 1460 1468 1464 1450 1451 1449 1453 1458 1462 1465 1465 1470 1478 1482 1493 1492 1490 1488 1488 1488 1493 1494 1499 1508 1529 1529 1532 1528 1512 1519 1506 1497 1496 1498 1499 1499 1498 1496
1400 1408 1412 1417 1424 1431 1441 1447 1454 1450 1445 1440 1439 1449 1455 1457 1463 1463 1470 1476 1474 1475 1483 1488 1495 1484 1482 1487 1493 1498 1501 1519 1522 1528 1523 1513 1516 1502 1496 1496 1497 1498 1499 1501 1500
1396 1401 1406 1405 1418 1427 1435 1427 1431 1435 1437 1440 1437 1449 1453 1452 1456 1461 1467 1467 1465 1469 1476 1488 1488 1472 1473 1476 1482 1495 1502 1497 1518 1526 1536 1513 1502 1496 1495 1497 1498 1498 1500 1501 1501
1386 1393 1396 1398 1412 1420 1419 1418 1426 1416 1430 1430 1434 1434 1448 1450 1454 1458 1461 1450 1457 1460 1463 1473 1481 1472 1472 1473 1477 1480 1485 1505 1517 1521 1519 1513 1507 1501 1497 1498 1497 1497 1498 1499 1500
1382 1382 1382 1394 1406 1409 1401 1406 1413 1421 1420 1424 1427 1432 1437 1441 1448 1453 1449 1446 1448 1455 1460 1467 1477 1477 1473 1474 1477 1483 1486 1488 1493 1505 1509 1512 1505 1487 1487 1492 1497 1498 1497 1497 1498
1366 1374 1379 1381 1385 1386 1390 1391 1401 1409 1419 1419 1425 1422 1427 1434 1443 1446 1441 1442 1442 1447 1457 1462 1474 1483 1475 1469 1469 1471 1474 1480 1498 1499 1510 1511 1496 1481 1484 1489 1493 1494 1495 1497 1497
1357 1367 1371 1372 1369 1374 1388 1392 1397 1405 1410 1416 1423 1422 1422 1429 1440 1435 1438 1439 1440 1445 1449 1458 1471 1483 1481 1474 1470 1467 1469 1470 1482 1493 1498 1505 1494 1484 1485 1487 1489 1489 1491 1493 1493
1349 1353 1360 1365 1361 1371 1384 1387 1395 1400 1403 1408 1411 1421 1425 1430 1434 1432 1436 1441 1439 1440 1443 1449 1462 1461 1459 1457 1459 1469 1467 1467 1469 1488 1484 1484 1487 1487 1487 1485 1485 1486 1488 1488 1490
1329 1339 1344 1353 1362 1365 1376 1378 1390 1396 1398 1402 1414 1413 1415 1429 1436 1435 1435 1441 1440 1441 1444 1447 1457 1463 1463 1460 1458 1458 1459 1466 1467 1464 1470 1469 1477 1477 1480 1481 1480 1481 1482 1483 1482
1315 1332 1343 1348 1356 1361 1366 1374 1379 1389 1394 1396 1400 1407 1413 1420 1423 1432 1431 1433 1436 1443 1443 1446 1462 1464 1467 1463 1462 1460 1461 1461 1462 1465 1468 1473 1475 1470 1473 1475 1476 1475 1478 1478 1479
1316 1328 1337 1340 1353 1359 1353 1366 1371 1383 1393 1392 1401 1406 1411 1414 1422 1424 1423 1424 1427 1433 1444 1451 1450 1459 1452 1468 1465 1467 1455 1455 1456 1456 1462 1474 1465 1467 1471 1472 1473 1474 1476 1475 1476